[[{"header":{"parameterUnit":"m.s-1","parameterCategory":1,"la1":30.2991,"la2":30.254,"lo1":-89.0895,"lo2":-89.0444,"dy":0.0017,"dx":0.0017,"nx":28,"ny":28,"refTime":"2024-03-30T09:00:00:Z","depth":0,"parameterNumber":2,"parameterNumberName":"U-component_of_WINDS"},"data":[0,0,0,0,0,0,0,0,0,0,0,0,0,0,0,0,0,0,0,0,0,0,0,0,0,0,0,0,0,0,0,0,0,0,0,0,0,0,0,0,0,0,0,0,0,0,0,0,0,0,0,0,0,0,0,0,0,0,0.0184,0.0184,0,0.0182,0.0182,0.0182,0.0187,0.0187,0.0187,0.0187,0.0184,0.0184,0.0184,0,0,0,0,0,0,0,0,0,0,0,0,0,0.0189,0.0189,0.0184,0.0184,0.0184,0.0182,0.0182,0.0182,0.0187,0.0187,0.0187,0.0187,0.0184,0.0184,0.0184,0,0,0,0,0,0,0,0,0,0,0,0,0,0.0187,0.0189,0.0184,0.0186,0.0186,0.0182,0.0182,0.0182,0.0187,0.0187,0.0187,0.0187,0.0185,0.0184,0.0184,0.0178,0,0,0.0183,0.0183,0,0,0,0,0,0,0,0,0.0187,0.0187,0.0186,0.0186,0.0186,0.0185,0.0183,0.0181,0.0187,0.0186,0.0187,0.0187,0.0184,0.0184,0.0183,0.0178,0.0178,0.0183,0.0183,0.0183,0.0183,0,0,0,0,0,0,0,0.0187,0.0187,0.0183,0.0186,0.0186,0.0186,0.0186,0.0183,0.0184,0.0186,0.0187,0.0187,0.0184,0.0184,0.0183,0.0177,0.0183,0.0183,0.0183,0.0182,0.0165,0.0165,0,0,0,0,0,0,0.0188,0.0187,0.0183,0.0183,0.0187,0.0186,0.0186,0.0185,0.0184,0.0184,0.0186,0.0187,0.0184,0.0184,0.0183,0.0175,0.0183,0.0182,0.0182,0.0165,0.0165,0.0165,0,0,0,0,0,0,0.0188,0.0187,0.0183,0.0185,0.0185,0.0186,0.0185,0.0185,0.0184,0.0184,0.0184,0.0185,0.0184,0.0184,0.0179,0.0175,0.0182,0.0182,0.0166,0.0165,0.0165,0.0159,0,0,0,0,0,0,0.0188,0.0187,0.0185,0.0185,0.0185,0.018,0.0184,0.0185,0.0184,0.0184,0.0183,0.0183,0.0184,0.0179,0.0178,0.0175,0.0182,0.0166,0.0166,0.0165,0.0159,0.0158,0.0157,0,0,0,0,0,0.0188,0.0184,0.0185,0.0185,0.0183,0.0179,0.0179,0.0181,0.0183,0.0181,0.0181,0.0183,0.0175,0.0179,0.0178,0.0174,0.0166,0.0166,0.0165,0.016,0.0159,0.0157,0,0,0,0,0,0,0.0184,0.0184,0.0186,0.0181,0.018,0.018,0.0178,0.0179,0.0177,0.0178,0.0179,0.0179,0.0174,0.0173,0.0177,0.0167,0.0171,0.017,0.0168,0.0166,0.0165,0.0165,0.0181,0,0,0,0,0,0.0182,0.018,0.018,0.0177,0.0176,0.0177,0.0176,0.0177,0.0176,0.0175,0.0175,0.0173,0.017,0.0168,0.0166,0.0159,0.0159,0.0156,0.0155,0.0154,0.0153,0.0149,0.0147,0.0163,0.0163,0.0163,0,0,0.0179,0.0179,0.0178,0.0176,0.0175,0.0172,0.0176,0.0174,0.0171,0.0175,0.017,0.0169,0.0168,0.0162,0.0159,0.0161,0.0149,0.0153,0.0153,0.0152,0.0148,0.0146,0.0145,0.0162,0.0162,0.0162,0,0,0.0172,0.0172,0.0169,0.0168,0.0167,0.0167,0.0166,0.0165,0.0165,0.016,0.0163,0.0159,0.0155,0.0153,0.0151,0.0142,0.0144,0.0141,0.0136,0.0131,0.013,0.0129,0.0124,0.0123,0.014,0.014,0.014,0,0.0169,0.0165,0.0167,0.0163,0.0162,0.0165,0.016,0.0159,0.0157,0.0156,0.0158,0.0151,0.015,0.0143,0.0141,0.014,0.0138,0.0141,0.013,0.0129,0.0128,0.0124,0.0122,0.014,0.014,0.014,0.014,0,0.016,0.0157,0.0154,0.0152,0.015,0.0147,0.0147,0.0145,0.0145,0.0145,0.014,0.0138,0.0135,0.0133,0.0135,0.0126,0.0127,0.013,0.0134,0.0126,0.0122,0.0121,0.014,0.014,0.014,0.014,0,0,0.0151,0.0149,0.0148,0.0146,0.0145,0.0142,0.0138,0.0134,0.0132,0.013,0.0126,0.0121,0.0123,0.0121,0.0122,0.0118,0.0109,0.0121,0.012,0.0118,0.0098,0.0096,0.0094,0.011,0.011,0.011,0.0098,0,0.0144,0.0137,0.0138,0.0131,0.0127,0.0129,0.0125,0.0123,0.0122,0.0119,0.0118,0.0114,0.0117,0.0116,0.0112,0.0111,0.0105,0.0112,0.0105,0.0105,0.0105,0.0093,0.0091,0.008,0.0097,0.0097,0.0096,0,0.0135,0.0132,0.0125,0.0122,0.0121,0.0117,0.0113,0.011,0.0108,0.0107,0.0104,0.0105,0.01,0.0104,0.0096,0.01,0.0098,0.0096,0.0096,0.0095,0.01,0.0091,0.0077,0.0075,0.0094,0.0094,0.0095,0,0.0128,0.0123,0.0117,0.0116,0.0113,0.011,0.0109,0.0106,0.0104,0.01,0.0098,0.0094,0.0092,0.0088,0.0087,0.0091,0.0079,0.0083,0.0077,0.0077,0.0075,0.0075,0.0059,0.0074,0.0074,0.0074,0.0074,0,0.012,0.0115,0.0114,0.0111,0.0105,0.0105,0.0099,0.0098,0.0095,0.0091,0.0092,0.0088,0.0087,0.0083,0.0082,0.0075,0.0074,0.0073,0.0072,0.0072,0.0072,0.007,0.0071,0.0073,0.0073,0.0074,0.0074,0,0.0111,0.0111,0.0105,0.0102,0.0101,0.0097,0.0094,0.009,0.0089,0.0084,0.0082,0.0081,0.0075,0.0074,0.0067,0.0067,0.0058,0.0059,0.0059,0.0059,0.0053,0.0053,0.0035,0.0032,0.0049,0.0049,0.0049,0,0.0106,0.0102,0.0099,0.0096,0.0094,0.009,0.0087,0.0087,0.0084,0.0079,0.0075,0.007,0.0066,0.0056,0.0054,0.0048,0.0049,0.0043,0.0048,0.0047,0.0048,0.0048,0.0047,0.0042,0.0042,0.0042,0.0041,0,0.0096,0.0095,0.0092,0.0087,0.0084,0.008,0.0077,0.0074,0.0073,0.0069,0.0063,0.006,0.0053,0.0047,0.0041,0.0039,0.0039,0.004,0.0038,0.0038,0.0037,0.0036,0.0055,0.004,0.004,0.004,0.004,0.004,0.0089,0.0085,0.0081,0.0077,0.0074,0.007,0.0066,0.0064,0.0059,0.0054,0.0053,0.0047,0.0042,0.0035,0.0032,0.0026,0.0028,0.0025,0.0025,0.0024,0.0023,0.0039,0.0025,0.0025,0.0025,0.0025,0.0025,0,0.0078,0.0076,0.0071,0.0066,0.0062,0.0063,0.0059,0.0055,0.0049,0.0045,0.004,0.0033,0.0027,0.0023,0.0017,0.0013,0.0013,0.0011,0.0011,0.001,0.0022,0.0024,0.0011,0.0011,0.0011,0.0011,0.0011,0.0011,0.0072,0.0065,0.0064,0.0055,0.0053,0.0046,0.0044,0.004,0.0037,0.0028,0.0023,0.0021,0.0017,0.001,0.0003,0.0002,-0.0,-0.0002,-0.0003,0.0008,0.0009,0.0011,0.0012,-0.0003,-0.0003,-0.0015,-0.0015,-0.0015]},{"header":{"parameterUnit":"m.s-1","parameterCategory":1,"la1":30.2991,"la2":30.254,"lo1":-89.0895,"lo2":-89.0444,"dy":0.0017,"dx":0.0017,"nx":28,"ny":28,"refTime":"2024-03-30T09:00:00:Z","depth":0,"parameterNumber":3,"parameterNumberName":"V-component_of_WINDS"},"data":[0,0,0,0,0,0,0,0,0,0,0,0,0,0,0,0,0,0,0,0,0,0,0,0,0,0,0,0,0,0,0,0,0,0,0,0,0,0,0,0,0,0,0,0,0,0,0,0,0,0,0,0,0,0,0,0,0,0,3.4435,3.4435,0,3.4467,3.4467,3.4467,3.4428,3.4427,3.4425,3.4424,3.4454,3.4456,3.4458,0,0,0,0,0,0,0,0,0,0,0,0,0,3.4337,3.4339,3.4435,3.4435,3.4436,3.4467,3.4467,3.4467,3.4429,3.4427,3.4425,3.4423,3.4453,3.4456,3.4458,0,0,0,0,0,0,0,0,0,0,0,0,0,3.4375,3.434,3.4435,3.442,3.4419,3.4466,3.4467,3.4467,3.4429,3.4427,3.4425,3.4423,3.4452,3.4455,3.4459,3.4521,0,0,3.4468,3.447,0,0,0,0,0,0,0,0,3.4373,3.4379,3.4422,3.4421,3.442,3.4441,3.4443,3.4485,3.4429,3.4425,3.4424,3.4422,3.4451,3.4454,3.4465,3.4523,3.4524,3.4469,3.4471,3.4472,3.4473,0,0,0,0,0,0,0,3.4371,3.4377,3.4447,3.4423,3.4422,3.4411,3.4414,3.4451,3.445,3.4425,3.4423,3.4427,3.445,3.4462,3.4465,3.4524,3.4469,3.4471,3.4473,3.4475,3.4632,3.4635,0,0,0,0,0,0,3.437,3.4375,3.4446,3.4448,3.4391,3.4414,3.4418,3.4437,3.4449,3.4449,3.4429,3.4425,3.4458,3.4462,3.4466,3.4539,3.4472,3.4475,3.4477,3.463,3.4633,3.4635,0,0,0,0,0,0,3.4368,3.4377,3.4445,3.4411,3.4419,3.4418,3.444,3.4438,3.445,3.4452,3.4451,3.4441,3.4456,3.4462,3.4507,3.4539,3.4476,3.4479,3.4628,3.4631,3.4634,3.4685,0,0,0,0,0,0,3.4366,3.4376,3.4401,3.4412,3.4421,3.4487,3.4442,3.4441,3.4456,3.4451,3.4463,3.4463,3.4455,3.4503,3.4511,3.4542,3.4482,3.4625,3.4629,3.4633,3.4681,3.469,3.4698,0,0,0,0,0,3.4362,3.4414,3.4403,3.4411,3.4452,3.4489,3.4494,3.4484,3.4459,3.4483,3.4484,3.4463,3.4535,3.4508,3.4516,3.455,3.4623,3.4628,3.4633,3.4677,3.4688,3.4698,0,0,0,0,0,0,3.4406,3.4415,3.4403,3.446,3.4474,3.4482,3.4512,3.4497,3.4518,3.4512,3.4498,3.4501,3.455,3.4554,3.4524,3.461,3.4574,3.4581,3.4605,3.4616,3.4624,3.4621,3.4484,0,0,0,0,0,3.4423,3.4453,3.4459,3.4509,3.4517,3.4513,3.4529,3.452,3.4534,3.4539,3.4544,3.4557,3.4582,3.4599,3.4623,3.4681,3.4682,3.4708,3.4717,3.4724,3.473,3.4759,3.477,3.4652,3.4652,3.4652,0,0,3.4457,3.4466,3.4486,3.4518,3.4528,3.4558,3.4519,3.4553,3.4574,3.4544,3.4587,3.4591,3.4605,3.4657,3.468,3.4662,3.4763,3.473,3.4736,3.4738,3.4765,3.4776,3.4786,3.4656,3.4655,3.4655,0,0,3.4534,3.4545,3.4587,3.4597,3.4613,3.461,3.462,3.4631,3.4632,3.4676,3.4653,3.4678,3.4723,3.4733,3.4744,3.4824,3.4805,3.4832,3.4877,3.4905,3.4915,3.4923,3.495,3.496,3.4838,3.4839,3.4839,0,3.4575,3.462,3.461,3.4645,3.4659,3.4634,3.4675,3.4686,3.4708,3.4717,3.4698,3.4752,3.476,3.4812,3.4832,3.4842,3.4852,3.483,3.4914,3.4922,3.493,3.4955,3.4965,3.4842,3.4841,3.4841,3.4841,0,3.4668,3.47,3.4731,3.4754,3.4771,3.481,3.4804,3.4822,3.4812,3.4811,3.4854,3.4863,3.4887,3.4899,3.4889,3.495,3.4938,3.4917,3.4881,3.4944,3.4968,3.4978,3.4846,3.4845,3.4844,3.4843,0,0,3.4774,3.479,3.4801,3.481,3.4825,3.4849,3.4885,3.4909,3.4925,3.4941,3.4969,3.5007,3.4987,3.5,3.4991,3.5016,3.5077,3.4991,3.4991,3.5005,3.5142,3.5157,3.5169,3.5065,3.5067,3.5068,3.514,0,3.485,3.4913,3.4904,3.4965,3.4993,3.4969,3.5,3.5012,3.5012,3.5035,3.5034,3.5061,3.5033,3.504,3.5064,3.5064,3.5104,3.5059,3.509,3.5091,3.5086,3.5181,3.5198,3.5266,3.515,3.5151,3.5153,0,3.4947,3.4967,3.503,3.5039,3.5051,3.5079,3.5099,3.5122,3.5134,3.5132,3.5146,3.5132,3.5166,3.5131,3.5177,3.5147,3.5159,3.5161,3.5163,3.5165,3.5125,3.5184,3.5287,3.5297,3.5167,3.5166,3.5165,0,3.5016,3.5058,3.5101,3.511,3.5122,3.5142,3.5148,3.5158,3.5172,3.519,3.5199,3.522,3.5232,3.5248,3.5239,3.5215,3.5287,3.5251,3.5285,3.5285,3.53,3.5299,3.5405,3.5311,3.531,3.531,3.531,0,3.5101,3.514,3.5132,3.5158,3.5201,3.5189,3.5232,3.5234,3.5243,3.5268,3.5249,3.5273,3.5261,3.5284,3.5277,3.5316,3.5322,3.532,3.5317,3.5321,3.5321,3.5327,3.5322,3.5313,3.5312,3.5312,3.5311,0,3.5185,3.5181,3.5226,3.5233,3.5236,3.5267,3.5273,3.5296,3.5295,3.5327,3.5333,3.533,3.5356,3.5349,3.5377,3.5373,3.5421,3.5413,3.5417,3.5414,3.5448,3.5444,3.5561,3.5575,3.5473,3.5474,3.5475,0,3.5239,3.5268,3.5279,3.5294,3.5302,3.5327,3.5342,3.5332,3.5347,3.5363,3.5384,3.5408,3.5427,3.5468,3.5468,3.5489,3.548,3.552,3.5483,3.5485,3.5479,3.5477,3.5479,3.5527,3.5528,3.5529,3.553,0,3.5334,3.533,3.5352,3.5374,3.5392,3.5408,3.5422,3.5435,3.5426,3.5444,3.547,3.5485,3.5513,3.5536,3.5555,3.556,3.5543,3.5542,3.555,3.5553,3.5553,3.5552,3.5435,3.5539,3.5538,3.5537,3.5537,3.5536,3.5403,3.5428,3.5438,3.5463,3.5473,3.5486,3.5508,3.5509,3.5531,3.5553,3.5546,3.5575,3.5585,3.5608,3.5615,3.5637,3.5622,3.5635,3.5638,3.5641,3.5644,3.5551,3.5641,3.5641,3.564,3.564,3.564,0,3.5496,3.5502,3.5525,3.5545,3.5564,3.5547,3.5561,3.5578,3.5604,3.5615,3.5634,3.5663,3.5685,3.5686,3.5707,3.5724,3.5717,3.573,3.5727,3.5728,3.5658,3.5647,3.5735,3.5735,3.5735,3.5735,3.5735,3.5735,3.5547,3.5586,3.5584,3.5627,3.5632,3.5661,3.5671,3.5682,3.5691,3.5724,3.5742,3.5743,3.575,3.5771,3.579,3.579,3.5797,3.5813,3.581,3.5743,3.5734,3.5725,3.5715,3.5815,3.5815,3.5878,3.5879,3.5879]}]]